Погода в Хузире

Поиск расширенной информации на нашем сайте:

Полезная информация:

Новости сайта



02.01.2020
Опубликован Долгосрочный прогноз погоды по городам России и ближнего зарубежья на январь 2020 года.
Карты: Прогноз на январь и февраль 2020 года, Сравнение прогнозируемой аномалии приземной температуры воздуха на январь 2020 года по разным моделям.




Погода в Хузире - сегодня

Время (UTC), дата Ветер
(°,м/с) 
Видим.   Явления Облачность Т
(°С)
Тd
(°С)
f(%) Тe
(°С)
Pmin
(гПа)
dP
(гПа)
Po
(мм)
O2
(г/м3)
Тmin Tmax R s Состояние
почвы
18 20.11.20 290 (З) 5{10}  н/о    8/8 600 м кучево-дожд. 
[Cb cap]
-8.5 -16.2 54 -13  1035.9  0.1  732  306           
00 21.11.20 280 (З) 20000 м    10/10 600 м кучево-дожд. 
[Cb cap]
-7.8 -13.9 62 -11  1035.4  0.4  732  305  -9.8      сухой снег
10-40% 
06 21.11.20 270 (З) 20000 м    10/9 600 м кучево-дожд., верхняя 
[Cb cap|Cs]
-5 -12.3 57 -9  1034.1  -0.6  732  301           
12 21.11.20 270 (З) н/о    3/3 600 м 
[Cu Sc]
-7.2 -12.9 64 -10  1032.9  -1  730  303    -4.6       
18 21.11.20 310 (СЗ) н/о    10/0 средняя 
[As trans]
-2.7 -14.5 40 -5  1027.7  -1.9  727  297           
00 22.11.20 290 (З) 3{10}  н/о    10/4 600 м кучево-дожд., средняя, верхняя 
[Cb cap|Ac As|Ci fib]
-2.5 -9 61 -5  1025.3  -0.1  726  296  -9.8         
06 22.11.20 270 (З) 6{10}  20000 м    10/8 600 м кучево-дожд., средняя, верхняя 
[Cb cap|Ac cuf|Ci fib]
-0.8 -9.1 53 -4  1024.9  -0.4  726  294           
12 22.11.20 280 (З) 3{11}  н/о    8/8 600 м кучево-дожд. 
[Cb cap]
-1.4 -7.4 64 -3  1025.8  0.4  726  295    -0.6       
18 22.11.20 250 (З) 3{10}  н/о  слаб. ливневой снег  10/10 600 м кучево-дожд. 
[Cb cap]
-0.4 -5.5 68 -2  1025.1  -0.5  726  293           
00 23.11.20 290 (З) н/о  слаб. ливневой снег  9/9 600 м кучево-дожд. 
[Cb cap]
-0.4 -6.3 64 -3  1025.3  0.2  726  294  -1.7    0.0     
06 23.11.20 280 (З) 20000 м    9/8 600 м кучево-дожд., средняя 
[Cb cap|Ac trans]
+1.3 -6.5 56 -1  1023.5  -1.1  725  291           
12 23.11.20 290 (З) 6-11{11}  н/о    9/8 600 м кучево-дожд., верхняя 
[Cb cap|Ci fib]
+0.3 -5.4 66 -3  1025.3  1.2  726  293    +1.8       
18 23.11.20 280 (З) 6-10{11}  н/о  {ливн. осадки}  10/10 600 м кучево-дожд. 
[Cb cap]
-0.8 -7.7 59 -4  1028.6  1.9  728  295           
00 24.11.20 280 (З) 8-13{17}  н/о    3/3 600 м кучево-дожд. 
[Cb cap]
-4.1 -11 59 -9  1032.1  1.5  730  300  -4.1    0.0     
06 24.11.20 270 (З) 7-10{15}  20000 м    4/3 600 м кучево-дожд., средняя, верхняя 
[Cb cap|Ac trans|Cc]
-3.4 -12.3 50 -8  1033.6  0.2  731  300           
12 24.11.20 270 (З) 7-12{13}  н/о    3/3 600 м кучево-дожд. 
[Cb cap]
-5.6 -12.9 56 -11  1036.9  1.3  733  303    -2.5       
18 24.11.20 270 (З) 6{12}  н/о    6/3 600 м кучево-дожд., верхняя 
[Cb cap|Ci sp]
-5.9 -15.4 47 -10  1038.9  0.6  735  304           
00 25.11.20 270 (З) н/о    10/10 600 м кучево-дожд. 
[Cb cap]
-6.8 -13.8 57 -9  1040.1  0.7  735  305  -7.9         
06 25.11.20 270 (З) 20000 м    8/8 600 м кучево-дожд. 
[Cb cap]
-4.1 -12.9 50 -5  1039.7  -0.2  736  302           
12 25.11.20 290 (З) н/о  в посл. час ливневой снег  10/10 600 м кучево-дожд. 
[Cb cap]
-5.1 -9.9 69 -6  1040.9  0.5  736  303    -3.6     
18 25.11.20 340 (С) н/о    6/4 600 м кучево-дожд., средняя 
[Cb cap|Ac trans]
-6.5 -11.4 68 -8  1041.1  -0.2  736  305           
00 26.11.20 320 (СЗ) н/о    8/3 300 м кучево-дожд., верхняя 
[Cb cap|Ci]
-9.7 -13.2 76 -11  1042  0.5  736  309  -12.2      равномерный
сухой снег
100% 
06 26.11.20 280 (З) 20000 м  в посл. час ливневой снег  9/8 300 м кучево-дожд., верхняя 
[Cb cap|Ci fib]
-3.8 -5.8 86 -3  1041.2  -0.4  737  302           
12 26.11.20 320 (СЗ) н/о  {ливн. осадки}  3/3 300 м кучево-дожд. 
[Cb cap]
-7.4 -12 70 -10  1043.6  0.9  738  307    -3.8     
18 26.11.20 310 (СЗ) н/о    1/1 600 м 
[Sc]
-7.7 -12.6 68 -11  1044  0.3  738  307           
Время (UTC), дата Ветер
(°,м/с) 
Видим.   Явления Облачность Т
(°С)
Тd
(°С)
f(%) Тe
(°С)
Pmin
(гПа)
dP
(гПа)
Po
(мм)
O2
(г/м3)
Тmin Tmax R s Состояние
почвы

Для получения пояснительной информации подведите курсор к названию столбца.

ПОГОДА в Хузире - архив

Всё, что Вы хотите узнать о погоде в Хузире - удобно и подробно!

Выберите нужную дату (начиная с 1 января 2019* года) и нажмите кнопку "Найти".
Будут отображены архивные сводки погоды по пункту Хузир, начиная с указанной даты.


Отображать данные в формате CSV (для использования в таблицах Excel)


Внимание! Наш архив погоды предназначен исключительно для личного некоммерческого использования в познавательных целях. Если Вам необходимы официальные справки о состоянии погоды (для производственных, юридических, коммерческих и т.п. целей), обращайтесь в органы Росгидромета.

*Примечание: данная дата относится к архиву по метеостанциям СССР (Россия, СНГ, Балтия).
Архив по метеостанциям Зарубежной Европы и Азии (кроме Китая) хранится 10 дней, по другим регионам земного шара (Китай, Африка, Америка, Австралия, Океания) - 1 день.

Хузир - район местоположения метеостанции


Название, широта, долгота, высота метеостанции:
Хузир 53.2°ш. 107.3°д. 462 м над ур. моря [Российская Федерация]

Дополнительная информация

В oтличие oт бoльшинства пoгoдных сайтoв мы публикуем пoдрoбную метеoинфoрмацию в детальнoм прoфессиoнальнoм фoрмате.

Характеристики температуры и влажнoсти вoздуха измеряются на высoте 2 м в тени вдали oт зданий и деревьев.
Скoрoсть ветра измеряется на высoте 10 м (на урoвне рoста челoвека скoрoсть ветра ниже в 1.5-2 раза). Если метеoстанция нахoдится в гoрoде или в лесу, тo скoрoсть ветра занижена на 2-4 м/с пo сравнению с oткрытым местoм. Скoрoсть ветра над акватoриями крупных рек и oзёр, а также на вершинах хoлмoв на 2-5 м/с выше, чем в oбычных услoвиях.
Атмoсфернoе давление в разных тoчках местнoсти мoжет значительнo oтличаться oт давления на метеoстанции, в зависимoсти oт услoвий рельефа (при пoдъёме на 10 м давление пoнижается примернo на 1 мм рт.ст.).